Regional Weather Roundup
Issued by NWS Jackson, KY

Home | Current Version | Previous Version | Text Only | Print | Product List | Glossary Off
Versions: 1 2 3 4 5 6 7 8 9 10 11 12 13 14 15 16 17 18 19 20 21 22 23 24 25 26 27 28 29 30 31 32 33 34 35 36 37 38 39 40 41 42 43 44 45 46 47 48 49 50

000
ASUS43 KJKL 221605
RWRJKL

EAST KENTUCKY HOURLY WEATHER ROUNDUP
NATIONAL WEATHER SERVICE JACKSON KY
1100 AM EST MON DEC 22 2014

NOTE: "FAIR" INDICATES FEW OR NO CLOUDS BELOW 12,000 FEET WITH
NO SIGNIFICANT WEATHER AND/OR OBSTRUCTIONS TO VISIBILITY.

* THESE REPORTS ARE NOT UNDER NWS QUALITY CONTROL AND MAY NOT
  REPORT WEATHER SUCH AS PRECIPITATION AND FOG.

KYZ079-080-083-085-087-088-110-112-115-119-120-221700
...EASTERN KENTUCKY...

CITY           SKY/WX    TMP DP  RH WIND       PRES   REMARKS
JACKSON        CLOUDY    46  36  68 CALM      30.00F
LONDON         PTSUNNY   53  39  59 SE7       29.98F
SOMERSET*      CLOUDY    46  37  71 SE5       29.99F
MONTICELLO*    CLOUDY    51  40  66 SE8       30.00F
MIDDLESBORO*   CLOUDY    50  39  67 S3        30.00F
HARLAN APT*    CLOUDY    52  37  58 E5        30.00F
BLACK MTN*       N/A     43  41  93 SE1         N/A
PIKEVILLE APT* PTSUNNY   45  36  70 E3        30.00F
BIG SANDY*     MOSUNNY   50  38  64 SE5       30.01F
MOREHEAD APT*  CLOUDY    45  34  65 CALM      30.04S
$$

KYZ035-036-041-042-044-050-067-078-099-221700
...CENTRAL KENTUCKY...

CITY           SKY/WX    TMP DP  RH WIND       PRES   REMARKS
MT STERLING*   PTSUNNY   46  36  66 S6        30.01F
FLEMING/MASON* MOSUNNY   45  36  71 SE6       30.02S
DANVILLE*      CLOUDY    45  36  70 CALM      29.99F
RICHMOND*      PTSUNNY   50  37  62 E6        29.97F
LEXINGTON      MOSUNNY   50  36  58 SE9       29.98F
FRANKFORT      MOSUNNY   45  35  68 SE6       29.95F
$$

KYZ091>093-OHZ055-061-077-WVZ005-015-034-035-042-221700
...SOUTHERN OHIO/WEST VIRGINIA...

CITY           SKY/WX    TMP DP  RH WIND       PRES   REMARKS
COLUMBUS       CLOUDY    37  29  72 E6        30.05F WCI  32
DAYTON         CLOUDY    39  31  72 E8        30.00F WCI  33
WILMINGTON     MOSUNNY   37  31  78 E5        30.01S WCI  33
HUNTINGTON     PTSUNNY   46  36  68 SE3       30.02F
CHARLESTON     PTSUNNY   47  35  63 VRB5      30.03F
PINEVILLE*     CLOUDY    45  38  78 MISG      30.11S
BECKLEY        CLOUDY    37  30  75 SE10      30.06F WCI  30
BLUEFIELD      CLOUDY    37  32  82 VRB5      30.08S WCI  33
$$

VAZ002-007-008-TNZ017-027-036-066-071-221700
...SOUTHWEST VIRGINIA/EAST TENNESSEE...

CITY           SKY/WX    TMP DP  RH WIND       PRES   REMARKS
WISE*          PTSUNNY   50  37  62 SE5       30.02F
JONESVILLE*    SUNNY     50  39  66 E6        30.03F
ABINGDON*      CLOUDY    49  39  70 E13       30.04F
BRISTOL        MOSUNNY   50  40  68 E7        30.03F
KNOXVILLE      MOSUNNY   51  40  65 N6        29.98F
OAK RIDGE      CLOUDY    49  38  65 NE5       30.01F
CROSSVILLE     CLOUDY    48  40  73 VRB7      29.95F
NASHVILLE      CLOUDY    52  45  77 S13       29.91F
$$

...KEY TO REMARKS...
VSB - VISIBILITY IN MILES
WCI - WIND CHILL INDEX
HX  - HEAT INDEX

$$



USA.gov is the U.S. government's official web portal to all federal, state and local government web resources and services.